Location: Hermaringen
(48.5952°N, 10.2585°E)
Time: 05:55:51
(UTC+00:00)

Injun/Solrad 3 - Visible Passes

Search period start: 18 February 2026 00:00
Search period end: 28 February 2026 00:00
Orbit: 873 x 983 km, 66.8° (Epoch: 17 February)

Date Brightness Start Highest point End Pass type
(mag) Time Alt. Az. Time Alt. Az. Time Alt. Az.
18 Feb 8.1 18:17:35 10° NNW 18:23:36 55° NE 18:27:14 25° ESE visible
18 Feb 9.1 20:04:23 10° NW 20:09:54 35° WSW 20:10:55 33° SW visible
19 Feb 7.9 18:28:35 10° NNW 18:34:45 75° NE 18:38:54 23° SE visible
19 Feb 9.8 20:15:53 10° WNW 20:20:42 24° WSW 20:22:36 21° SW visible
20 Feb 8.0 18:39:38 10° NW 18:45:48 80° WSW 18:50:45 17° SSE visible
20 Feb 10.3 20:27:47 10° WNW 20:31:24 16° WSW 20:34:27 12° SW visible
21 Feb 8.5 18:50:45 10° NW 18:56:47 57° WSW 19:02:51 10° SSE visible
22 Feb 8.2 17:15:18 10° NNW 17:21:16 50° NE 17:27:22 10° ESE visible
22 Feb 9.2 19:01:59 10° NW 19:07:41 40° WSW 19:13:29 10° S visible
23 Feb 8.0 17:26:16 10° NNW 17:32:25 68° NE 17:38:43 10° SE visible
23 Feb 9.8 19:13:23 10° NW 19:18:29 27° WSW 19:23:40 10° SSW visible
24 Feb 8.0 17:37:18 10° NW 17:43:30 89° WSW 17:49:51 10° SSE visible
24 Feb 10.4 19:25:06 10° WNW 19:29:13 19° WSW 19:33:23 10° SSW visible
25 Feb 8.5 17:48:24 10° NW 17:54:31 64° WSW 18:00:45 10° SSE visible
25 Feb 10.8 19:37:41 10° W 19:39:52 12° W 19:42:04 10° WSW visible
26 Feb 9.2 17:59:35 10° NW 18:05:26 45° WSW 18:11:23 10° S visible
27 Feb 9.9 18:10:56 10° NW 18:16:16 31° WSW 18:21:42 10° S visible
